Regional Weather Roundup
Issued by NWS San Angelo, TX

Home | Current Version | Previous Version | Text Only | Print | Product List | Glossary On
Versions: 1 2 3 4 5 6 7 8 9 10 11 12 13 14 15 16 17 18 19 20 21 22 23 24 25 26 27 28 29 30 31 32 33 34 35 36 37 38 39 40 41 42 43 44 45 46 47 48 49 50
000
ASUS44 KSJT 291010
RWRSJT
WEST CENTRAL TEXAS REGIONAL WEATHER ROUNDUP
NATIONAL WEATHER SERVICE SAN ANGELO TX
500 AM CDT WED JUL 29 2015

NOTE: "FAIR" INDICATES FEW OR NO CLOUDS BELOW 12,000 FEET WITH NO
SIGNIFICANT WEATHER AND/OR OBSTRUCTIONS TO VISIBILITY.

TXZ049-054-064>066-071>073-076>078-098-099-113-114-127-128-139-140-
154-155-168>170-291100
...LOCATIONS ACROSS WEST CENTRAL TEXAS...

CITY           SKY/WX    TMP DP  RH WIND       PRES   REMARKS
SAN ANGELO     CLEAR     79  68  69 S8        30.01R
ABILENE        CLEAR     79  65  62 S8        30.01S
DYESS AFB      CLEAR     79  67  67 S5        30.00R
JUNCTION       CLEAR     77  70  79 E7        30.03S
SWEETWATER     CLEAR     78  63  60 S12       30.05S
BROWNWOOD      CLOUDY    75  68  78 SE3       30.02S
COLEMAN        SUNNY     76  68  75 S5        30.03S
SONORA         CLEAR     77  70  78 SE7       30.08R
OZONA          FAIR      77  64  65 SE6       30.05F
BRADY          CLEAR     77  70  78 SE6       30.03S
$$

TEXAS PANHANDLE/OKLAHOMA PANHANDLE

CITY           SKY/WX    TMP DP  RH WIND       PRES   REMARKS
AMARILLO       PTCLDY    66  64  93 N8        30.14R
BORGER         CLOUDY    70  66  87 CALM      30.12R
CANADIAN       MOCLDY    75  67  74 N6        30.06S
DALHART        CLOUDY    68  64  87 NW12      30.16S
DUMAS          CLOUDY    65  64  94 CALM      30.15R
GUYMON         NOT AVBL
HEREFORD       MOSUNNY   66  65  95 MISG      30.16R
PAMPA          PTSUNNY   69  66  90 NE7       30.12S
PERRYTON       CLOUDY    69  62  78 N14       30.11R
$$

SOUTHERN PANHANDLE/SOUTH PLAINS/ROLLING PLAINS

CITY           SKY/WX    TMP DP  RH WIND       PRES   REMARKS
LUBBOCK        PTCLDY    69  62  78 NE3       30.09S
SNYDER         MOCLDY    76  63  63 CALM      30.06R
CHILDRESS      CLEAR     76  64  66 N12       30.02F
SEMINOLE       MOSUNNY   72  61  69 NE5       30.11S
$$

PERMIAN BASIN

CITY           SKY/WX    TMP DP  RH WIND       PRES   REMARKS
MIDLAND        PTCLDY    81  61  50 S5        30.06R
ODESSA         PTCLDY    81  60  48 SE6       30.07R
WINK           CLEAR     78  62  57 N9        30.04R
$$

FAR WEST/SOUTHWEST MOUNTAINS/TRANS PECOS

CITY           SKY/WX    TMP DP  RH WIND       PRES   REMARKS
ALPINE         CLOUDY    72  59  64 NW7       30.19S
DRYDEN           N/A     79  62  56 CALM      29.98R
EL PASO        CLOUDY    74  62  66 CALM      30.14R
FORT STOCKTON  PTCLDY    78  61  55 SE8       30.04R
GUADALUPE PASS MOCLDY    69  58  67 NE17      30.23F
MARFA          CLOUDY    73  61  64 N16       30.17R
PECOS          MOSUNNY   81  62  52 N6        30.02R
$$

DALLAS/FORT WORTH METROPLEX

CITY           SKY/WX    TMP DP  RH WIND       PRES   REMARKS
DFW AIRPORT    CLEAR     83  68  60 S14       29.98R
FTW MEACHAM    CLEAR     83  68  60 S9        29.98R
DAL-EXECUTIVE  CLEAR     80  69  69 S6        29.99R
GRAND PRAIRIE  CLEAR     82  71  69 S6        30.00R
ADDISON        CLEAR     84  70  63 S6        30.01R
MESQUITE       SUNNY     76  68  76 S3        30.00R
LANCASTER      SUNNY     77  67  72 S3        30.00S
$$

NORTH CENTRAL TEXAS

CITY           SKY/WX    TMP DP  RH WIND       PRES   REMARKS
SHRMAN/DENISON SUNNY     80  68  67 S10       30.00S
GAINESVILLE    CLEAR     75  67  74 SE3       30.01R
BRIDGEPORT     NOT AVBL
DENTON         CLEAR     79  69  71 S7        29.98R
WAXAHACHIE     SUNNY     75  69  82 SE5       30.00F
GRANBURY       SUNNY     80  68  65 CALM      30.00S
$$

WESTERN NORTH TEXAS

CITY           SKY/WX    TMP DP  RH WIND       PRES   REMARKS
WICHITA FALLS  CLEAR     74  67  78 S7        29.98R
VERNON         SUNNY     77  62  59 CALM      29.99S
BRECKENRIDGE   SUNNY     80  66  62 S7        29.98S
COMANCHE       CLEAR     77  68  74 S7        30.02S
$$

CENTRAL AND SOUTH CENTRAL TEXAS

CITY           SKY/WX    TMP DP  RH WIND       PRES   REMARKS
AUSTIN/BERGSTM PTCLDY    72  72 100 S3        29.99S
WACO           CLEAR     78  72  81 S10       30.00S
HILLSBORO      SUNNY     78  67  69 S6        30.01R
TEMPLE         CLEAR     75  68  78 S9        30.01R
KILLEEN-GRAY   CLEAR     73  69  86 S7        30.01R
FORT HOOD      CLEAR     74  69  85 S6        30.00S
GEORGETOWN     CLEAR     75  72  88 SW5       30.00S
LAGO VISTA     FAIR      75  73  91 SW6       30.04R
SAN MARCOS     MOCLDY    75  73  94 SW7       30.02R
NEW BRAUNFELS  CLOUDY    77  75  93 S8        30.00R
RANDOLPH AFB   MOCLDY    75  73  94 SE3       30.01S
SAN ANTONIO    MOCLDY    78  73  84 S8        30.02R
STINSON        CLOUDY    77  74  90 SE3       29.98S
PLEASANTON     NOT AVBL
LA GRANGE      PTCLDY    75  75  99 SW3       29.98S FOG
GIDDINGS       SUNNY     75  74  95 S6        30.03F FOG
$$

EAST TEXAS

CITY           SKY/WX    TMP DP  RH WIND       PRES   REMARKS
PARIS          CLEAR     75  66  73 SW5       30.00R
CLARKSVILLE    NOT AVBL
TYLER          CLEAR     78  70  76 CALM      30.00S
LONGVIEW       CLEAR     79  71  76 S3        29.99S
PALESTINE      SUNNY     77  73  88 SE3       30.01S
NACOGDOCHES    CLEAR     73  70  88 CALM      30.01S
$$

TEXAS HILL COUNTRY AND EDWARDS PLATEAU

CITY           SKY/WX    TMP DP  RH WIND       PRES   REMARKS
LLANO          SUNNY     73  66  78 CALM      30.06R
HORSESHOE BAY  FAIR      75  70  84 CALM      30.03R
KERRVILLE      CLEAR     72  69  90 SE5       30.05S
FREDERICKSBRG  CLEAR     72  67  84 CALM      30.05S
ROCKSPRINGS    SUNNY     73  70  88 SE10      30.06F
HONDO          CLEAR     73  71  93 E7        30.02S
UVALDE         SUNNY     74  71  90 E8        29.99S
DEL RIO        CLEAR     81  71  71 E10       29.94R
$$

SOUTHEAST TEXAS

CITY           SKY/WX    TMP DP  RH WIND       PRES   REMARKS
COLLEGE STN    CLEAR     76  74  93 S5        29.99F
CALDWELL       SUNNY     73  73 100 CALM      30.03R FOG
CROCKETT       SUNNY     77  75  94 CALM      30.03S
BRENHAM        CLEAR     76  76  99 S3        30.00S FOG
HUNTSVILLE     CLEAR     78  75  90 CALM      30.00S
CONROE         CLEAR     76  72  87 CALM      30.01R
HOUSTON BUSH   PTCLDY    77  76  96 CALM      29.99S
HOUSTON HOBBY  PTCLDY    79  76  90 CALM      29.99S
PERLAND        CLEAR     79  75  87 CALM      30.00S
WHARTON        SUNNY     73  72  97 CALM      30.00S FOG
$$

THE UPPER TEXAS COAST

CITY           SKY/WX    TMP DP  RH WIND       PRES   REMARKS
ORANGE         SUNNY     74  74 100 CALM      30.01S
PORT ARTHUR    CLEAR     77  76  96 CALM      29.98F
GALVESTON      CLEAR     83  78  85 SW3       30.01R
ANGLETON       MOCLDY    75  74  96 CALM      29.99S FOG
BAY CITY       PTSUNNY   76  76 100 CALM      29.99R
$$

TEXAS COASTAL BEND, RIO GRANDE PLAINS DEEP SOUTH TEXAS

CITY           SKY/WX    TMP DP  RH WIND       PRES   REMARKS
VICTORIA       PTCLDY    75  75 100 E5        29.98S FOG
BEEVILLE       CLOUDY    74  73  99 S9        29.97R
ROCKPORT       MOCLDY    83  78  85 S6        29.95S
PORT ARANSAS   PTSUNNY   80  79  96 S7        29.96S
PORT LAVACA    MOSUNNY   75  75 100 CALM      29.98S
CORPUS CHRISTI PTCLDY    81  77  88 S10       29.95S
KINGSVILLE NAS CLEAR     78  78 100 SE5       29.95S
COTULLA        CLEAR     78  73  84 E6        29.96R
LAREDO         CLEAR     80  74  82 SE8       29.95R
BROWNSVILLE    CLOUDY   N/A N/A N/A SE5       29.95S
PORT ISABEL    MOCLDY    81  78  91 SE7       29.94F FOG
HEBBRONVILLE     N/A     77  75  93 SE7       29.96S FOG
MCALLEN        CLOUDY    84  78  82 SE10      29.94S
WESLACO        MOCLDY    80  76  88 SE6       29.94R
FALFURRIAS     CLOUDY    79  76  92 E6        29.94S
EDINBURG       SUNNY     80  76  89 CALM      29.95R
$$



USA.gov is the U.S. government's official web portal to all federal, state and local government web resources and services.